Starlink 31589

operational
NORAD ID: 59654 Int'l Des: 2024-084 Owner: SPXS Country: US Constellation: starlink
LEOCIRCULAR

Starlink 31589について

説明を読み込み中...

リアルタイム位置

3D地球を読み込み中...

次回通過

高度履歴

Altitude vs Time

uPlot chart will show altitude changes over time

軌道要素

1 59654U 24084A 25354.10474758 .00001051 00000-0 47723-4 0 9996
2 59654 43.0026 131.0894 0001480 272.4057 87.6625 15.27577254 92226
Epoch: Dec 20, 2025 • Age: 10 hours

現在のステータス

高度 484.1 km
速度 7.62 km/s
衛星直下点 -8.01°S, 36.48°E
打ち上げ日 May 6, 2024
運用期間 1.6 years
タイプ internet

技術仕様

分類 Payload
質量 730.00 kg
乾燥質量 700.00 kg
総質量 730.00 kg
長さ 0.30 m
直径 4.10 m
スパン 29.00 m
形状 Box + pan
製造者 SPXS
バスタイプ Starlink V2M
フェーズステータス In Orbit
所有者/国 SPXS/US

大規模コンステレーション

Loading constellations...